Regional Weather Roundup
Issued by NWS

Home | Current Version | Previous Version | Text Only | Print | Product List | Glossary On
Versions: 1 2 3 4 5 6 7 8 9 10 11 12 13 14 15 16 17 18 19 20 21 22 23 24 25 26 27 28 29 30 31 32 33 34 35 36 37 38 39 40 41 42 43 44 45 46 47 48 49 50
000
ASHW40 PHFO 181943
RWRHI

WEATHER ROUNDUP FOR HAWAII
NATIONAL WEATHER SERVICE HONOLULU HI
900 AM HST WED JAN 18 2017

THIS IS AN AUTOMATED REPORT THAT HAS NOT BEEN QUALITY CONTROLLED.

NOTE..."FAIR" INDICATES FEW OR NO CLOUDS BELOW 12,000 FEET WITH NO
SIGNIFICANT WEATHER AND/OR OBSTRUCTIONS TO VISIBILITY.

* - THESE SITES REPORT LIMITED FIELDS

HIZ001>004-182000-
KAUAI-NIIHAU-

CITY           SKY/WX    TMP DP  RH WIND       PRES   REMARKS
LIHUE APT      MOSUNNY   78  63  59 NE12      30.13R
PORT ALLEN*      N/A     77 N/A N/A E13         N/A
POIPU*           N/A     75 N/A N/A E8G16       N/A
PRINCEVILLE*   NOT AVBL
KOKOLE POINT*  NOT AVBL
MOLOAA DAIRY*    N/A     75  64  69 E6G13       N/A
WAIMEA HTS*      N/A     79  63  57 S3          N/A
PUU OPAE*      NOT AVBL
PUU LUA*       NOT AVBL
MAKAHA RIDGE*    N/A     70  63  78 S2          N/A
$$

HIZ005>011-182000-
OAHU-

CITY           SKY/WX    TMP DP  RH WIND       PRES   REMARKS
HONOLULU       MOSUNNY   77  62  59 NE13      30.10R
KALAELOA       SUNNY     76  63  64 VRB7      30.12R
KANEOHE MCB    PTSUNNY   77  65  66 E8        30.09
WHEELER FIELD  MOSUNNY   73  63  71 CALM      30.12R
BELLOWS*         N/A    N/A N/A N/A NE13G18     N/A
KAHUKU*          N/A    N/A N/A N/A NE10G18     N/A
WHEELER*         N/A    N/A N/A N/A E9G15       N/A
WAIANAE HARBOR   N/A    N/A N/A N/A NW3         N/A
DILLINGHAM*      N/A     84  72  65 MISG        N/A
KAHUKU TRN*      N/A    N/A N/A N/A W9G18       N/A
KAWAILOA*        N/A     70  63  78 E10G18      N/A
KII*             N/A     75  63  64 E18G25      N/A
MAKUA RANGE*     N/A     82  72  69 N2G9        N/A
OAHU FOREST NW   N/A    N/A N/A N/A E10G25      N/A
SCHOFIELD BRK*   N/A     70  59  68 MISG        N/A
SCHOFIELD S*   NOT AVBL
WAIANAE VLY*     N/A    N/A N/A N/A NW3G10      N/A
KUAOKALA*        N/A     72   1   6 NE9G15      N/A
HONOULIUULI*   NOT AVBL
MOKUOLOE IS*   NOT AVBL
PALEHUA*         N/A     66  61  82 E7G17       N/A
WAIAWA PHB*    NOT AVBL
$$

HIZ012>013-182000-
MOLOKAI-

CITY           SKY/WX    TMP DP  RH WIND       PRES   REMARKS
MOLOKAI AIRPT  SUNNY     84  66  54 NE7       30.10R
KALAUPAPA      NOT AVBL
MAKAPULAPAI*     N/A     77  68  73 E18G28      N/A
MOLOKAI 1*       N/A     68 N/A N/A W2          N/A
PUU ALII*        N/A     58  56  95 E3G17       N/A
$$

HIZ016-182000-
KAHOOLAWE-

CITY           SKY/WX    TMP DP  RH WIND       PRES   REMARKS
KAHOOLAWE*     NOT AVBL
HAKIOAWA*        N/A     71  66  85 MISG      30.49R
HONOKANAIA*      N/A     75  65  70 NE17G35     N/A
KANELOA*         N/A     70  64  83 NE22G37   30.12R
KEALIALALO*    NOT AVBL
LUA MAKIKA*    NOT AVBL
$$

HIZ014>015-182000-
LANAI-

CITY           SKY/WX    TMP DP  RH WIND       PRES   REMARKS
LANAI CITY     PTSUNNY   72  64  78 NW10      30.14S
LANAI 1*       NOT AVBL
$$

HIZ017>028-182000-
MAUI-

CITY           SKY/WX    TMP DP  RH WIND       PRES   REMARKS
KAHULUI        MOSUNNY   73  63  70 CALM      30.07R
KAPALUA-W MAUI NOT AVBL
HANA AIRPORT   NOT AVBL
HANA*            N/A     72 N/A N/A SE7G16      N/A
HALEAKALA SUMM   N/A     48   7  18 E40         N/A
MAALAEA BAY*     N/A     77 N/A N/A E5          N/A
HALEAKALA*     NOT AVBL
KAUPO GAP*       N/A    N/A N/A N/A N18G39      N/A
KULA 1*          N/A     61   6  11 NE3G12      N/A
$$

HIZ023>026-182000-
BIG ISLAND OF HAWAII COAST AND LOWER SLOPES-

CITY           SKY/WX    TMP DP  RH WIND       PRES   REMARKS
KAILUA KONA    SUNNY     78  63  59 SE7       30.06R
HILO           MOSUNNY   72  54  53 SW6       30.14R
HONOKAA*         N/A     72 N/A N/A VRB1        N/A
KAWAIHAE MWT*  NOT AVBL
KAWAIHAE*        N/A     75 N/A N/A NW8       30.07R
SOUTH POINT*     N/A     73 N/A N/A N18G25      N/A
UPOLU AIRPORT* NOT AVBL
KAMUELA*       NOT AVBL
HAKALAU*         N/A     63  14  15 S5G12       N/A
KALOKO-HONOKO*   N/A     81  66  61 S3        30.06R
PALI 2*          N/A     70  54  56 S17G23      N/A
KEALAKOMO*       N/A     79  61  53 N12G36      N/A
KAUPULEHU*       N/A     79  52  38 W5G12       N/A
KAPAPALA*      NOT AVBL
LOWER KAHUKU*    N/A     63  52  67 N3G15       N/A
PUHE CS*         N/A     75  61  60 N3          N/A
PUHO CS*         N/A     76  53  44 E2          N/A
PTA KEAMUKU*     N/A     63  43  48 CALM        N/A
WAIKOLOA*        N/A     75  61  60 NW3G12      N/A
$$

HIZ027>028-182000-
BIG ISLAND OF HAWAII INTERIOR AND SUMMMITS-

CITY           SKY/WX    TMP DP  RH WIND       PRES   REMARKS
BRADSHAW FIELD SUNNY     64   7  11 S17G25    30.36S
MK VISITOR CEN   N/A     57  -8   7 E21         N/A
MAUNA KEA*       N/A     37 -11  12 E44         N/A  WCI  23
MAUNA LOA*       N/A     45 -13   8 MISG        N/A
MAUNA LOA 1*   NOT AVBL
PTA KIPUKA*      N/A     75  -9   3 E21G33      N/A
PTA RANGE 17*    N/A     59 -17   4 SE26G36     N/A
PTA WEST*        N/A     48 -24   4 E21G33      N/A
NENE CABIN*      N/A     59  -2   8 E12G22      N/A
AHUMOA*          N/A     68  10  10 SW3         N/A
PTA PORTABLE*  NOT AVBL
PUU MALI*        N/A     66 N/A N/A E23G39      N/A
$$

HIC003-182000-
NORTHWEST ISLANDS-

CITY           SKY/WX    TMP DP  RH WIND       PRES   REMARKS
MIDWAY ISLAND  LGT RAIN  70  63  78 W8        29.97R
MIDWAY NOS*      N/A     68 N/A N/A MISG      29.97R
FRENCH FRIGATE NOT AVBL
$$

PHZ110>124-180-182000-
BUOY REPORTS

STATION/POSITION TIME  TEMP    WIND        PRES    WAVE   SWELL
                       AIR SEA DIR/SP/G            HT/PER HT/DIR
                 (UTC) (F)     (DEG/KT/KT) (MB)    (FT/S) (FT/D)
BUOY 51001       1930   74     130/ 12/ 17 1020.3R
BUOY 51101       1850   74 76  110/ 12/ 19 1020.5R  11/14  11/290
BUOY 51100       NOT AVBL
BUOY 51002       1930   77      90/ 19/ 25 1017.4R
BUOY 51003       1850   77 77   90/ 12/ 16 1018.0R   7/11   7/310
BUOY 51004       1850   71 77   80/ 21/ 25 1017.8R   9/ 9   5/ 80
BARBERS PT BUOY  NOT AVBL
WAIMEA BAY BUOY  1902      75                N/A     5/11   3/330
KAILUA BAY BUOY  1904      76                N/A     6/10   2/360
LANAI BUOY       1845      77                N/A     2/11   2/280
BARBERS PT 2     1909      77                N/A     4/11   2/310
PAUWELA MAUI     1909      76                N/A     7/13   3/340
HILO             1912      76                N/A     7/ 8   3/ 50
KANEOHE BAY BUOY 1906      75                N/A     5/10   2/350
HANALEI KAUAI    1922      77                N/A     6/11   3/320
KAHULUI HARBOR   1912   74 77  330/ 16/ 20 1018.4
HONOLULU HARBOR  1918          110/  4/  9 1020.2
KILO NALU        NOT AVBL
HILO HARBOR      1912   74 75  180/  2/  4 1020.5
MOKUOLOE         1836   75 76  100/  9/ 13 1019.7R
NAWILIWILI       1912   75      50/ 10/ 12 1019.9
WHOTS BUOY       NOT AVBL
BUOY 51028       NOT AVBL
$$

......................KEY........................................
  SKY/WX - SKY CONDITIONS/PRESENT WEATHER
  TMP    - TEMPERATURE IN FAHRENHEIT
  DWPT   - DEWPOINT IN FAHRENHEIT
  RH     - RELATIVE HUMIDITY IN PERCENT
  WIND   - DIRECTION AND SPEED /MPH FOR ISLANDS...KTS FOR BUOYS/
  PRES   - MEAN SEA LEVEL PRESSURE IN INCHES OF HG
  VSB    - VISIBILITY IN MILES
  HX     - HEAT INDEX
  WCI    - WIND CHILL INDEX
  VRB    - VARIABLE WIND DIRECTION
  N/A    - NOT AVAILABLE



USA.gov is the U.S. government's official web portal to all federal, state and local government web resources and services.